Location: Houhaj�rvi
(61.2833°N, 23.0000°E)
Time: 22:49:04
(UTC+00:00)

Cosmos 1092 Rocket - Pass Details

Date: 27 February 2020
Orbit: 954 x 995 km, 82.9° (Epoch: 09 April)

Event Time Altitude Azimuth Distance (km) Brightness Sun altitude
Rises 16:55:04 0° 343° (NNW) 3,724 7.3 -9.0°
Reaches altitude 10° 16:57:43 10° 350° (N) 2,774 6.5 -9.4°
Maximum altitude 17:03:52 48° 64° (ENE) 1,293 4.3 -10.1°
Drops below altitude 10° 17:09:59 10° 137° (SE) 2,761 6.0 -10.8°
Sets 17:12:37 0° 144° (SE) 3,704 6.7 -11.1°
